UAE335 LIMC-LICC

Flight info

Callsign UAE335
Flight time 1h 57m
Altitude 41000
Route ROBAS DCT BEROK DCT TINKU DCT LURON DCT BEKIV DCT ENEPA M871 LIBRO
Aircraft B77W/H-SDE1E2E3FGHIJ2J3J4J5M1RWXY/LB1D1

Departure

Time 2026-05-07 16:29
Airport Milan Malpensa International Airport (LIMC)

Arrival

Time 2026-05-07 18:26
Airport Catania-Fontanarossa Airport (LICC)
Time Latitude Longitude Altitude Speed Heading
2026-05-07 15:56 45.62235 8.71787 741 ft 0 kts 169°
2026-05-07 16:17 45.62247 8.71784 738 ft 4 kts 169°
2026-05-07 16:17 45.62274 8.71777 739 ft 4 kts 169°
2026-05-07 16:17 45.62295 8.71770 738 ft 4 kts 150°
2026-05-07 16:18 45.62311 8.71745 739 ft 4 kts 103°
2026-05-07 16:18 45.62313 8.71725 739 ft 1 kts 86°
2026-05-07 16:18 45.62316 8.71760 738 ft 4 kts 80°
2026-05-07 16:18 45.62321 8.71795 738 ft 2 kts 78°
2026-05-07 16:19 45.62321 8.71796 738 ft 1 kts 78°
2026-05-07 16:20 45.62322 8.71803 738 ft 4 kts 78°
2026-05-07 16:20 45.62322 8.71889 739 ft 13 kts 108°
2026-05-07 16:21 45.62287 8.71936 738 ft 5 kts 157°
2026-05-07 16:21 45.62200 8.71960 739 ft 21 kts 170°
2026-05-07 16:21 45.62035 8.72001 738 ft 25 kts 169°
2026-05-07 16:21 45.61855 8.72050 739 ft 25 kts 169°
2026-05-07 16:22 45.61669 8.72101 741 ft 29 kts 169°
2026-05-07 16:22 45.61470 8.72157 740 ft 29 kts 169°
2026-05-07 16:22 45.61273 8.72212 739 ft 29 kts 169°
2026-05-07 16:22 45.61074 8.72268 739 ft 29 kts 169°
2026-05-07 16:23 45.60872 8.72322 740 ft 29 kts 169°
2026-05-07 16:23 45.60694 8.72379 740 ft 23 kts 156°
2026-05-07 16:23 45.60645 8.72440 738 ft 2 kts 104°
2026-05-07 16:23 45.60641 8.72467 739 ft 3 kts 99°
2026-05-07 16:24 45.60637 8.72510 741 ft 6 kts 97°
2026-05-07 16:24 45.60628 8.72611 739 ft 16 kts 96°
2026-05-07 16:24 45.60612 8.72823 742 ft 27 kts 96°
2026-05-07 16:24 45.60593 8.73102 739 ft 25 kts 94°
2026-05-07 16:25 45.60640 8.73269 740 ft 18 kts 30°
2026-05-07 16:25 45.60784 8.73356 740 ft 27 kts 20°
2026-05-07 16:25 45.60972 8.73385 741 ft 25 kts 349°
2026-05-07 16:25 45.61172 8.73330 740 ft 33 kts 349°
2026-05-07 16:26 45.61368 8.73277 742 ft 32 kts 349°
2026-05-07 16:26 45.61546 8.73227 741 ft 22 kts 349°
2026-05-07 16:26 45.61624 8.73309 741 ft 16 kts 76°
2026-05-07 16:26 45.61624 8.73433 741 ft 21 kts 105°
2026-05-07 16:27 45.61591 8.73633 739 ft 14 kts 85°
2026-05-07 16:27 45.61610 8.73704 739 ft 2 kts 49°
2026-05-07 16:27 45.61646 8.73719 739 ft 9 kts
2026-05-07 16:27 45.61730 8.73707 742 ft 16 kts 346°
2026-05-07 16:28 45.61753 8.73699 740 ft 0 kts 348°
2026-05-07 16:28 45.61843 8.73673 741 ft 47 kts 348°
2026-05-07 16:28 45.62451 8.73503 744 ft 128 kts 348°
2026-05-07 16:28 45.63541 8.73213 813 ft 183 kts 351°
2026-05-07 16:29 45.64850 8.72887 1377 ft 198 kts 349°
2026-05-07 16:29 45.66159 8.72476 2039 ft 210 kts 346°
2026-05-07 16:29 45.67581 8.71949 2609 ft 221 kts 351°
2026-05-07 16:29 45.69135 8.72092 3206 ft 228 kts 10°
2026-05-07 16:30 45.70709 8.72330 3874 ft 233 kts
2026-05-07 16:30 45.72300 8.72698 4459 ft 236 kts 25°
2026-05-07 16:30 45.73469 8.74320 5128 ft 238 kts 66°
2026-05-07 16:30 45.73947 8.76594 5753 ft 242 kts 76°
2026-05-07 16:31 45.74440 8.78908 6492 ft 242 kts 75°
2026-05-07 16:31 45.74586 8.81309 7009 ft 249 kts 106°
2026-05-07 16:31 45.73943 8.83613 7536 ft 254 kts 116°
2026-05-07 16:31 45.73071 8.85842 8113 ft 259 kts 127°
2026-05-07 16:32 45.71985 8.87924 8897 ft 263 kts 129°
2026-05-07 16:32 45.70901 8.89942 9677 ft 266 kts 129°
2026-05-07 16:32 45.69775 8.92061 10412 ft 270 kts 129°
2026-05-07 16:32 45.68645 8.94230 11175 ft 273 kts 128°
2026-05-07 16:33 45.67509 8.96441 12004 ft 278 kts 128°
2026-05-07 16:33 45.66363 8.98685 12893 ft 281 kts 129°
2026-05-07 16:33 45.65207 9.00955 13772 ft 285 kts 129°
2026-05-07 16:33 45.63999 9.03232 14500 ft 292 kts 133°
2026-05-07 16:34 45.62611 9.05490 14839 ft 315 kts 135°
2026-05-07 16:34 45.61054 9.07893 15060 ft 343 kts 136°
2026-05-07 16:34 45.59366 9.10481 15265 ft 371 kts 135°
2026-05-07 16:34 45.57552 9.13279 15537 ft 395 kts 135°
2026-05-07 16:35 45.55666 9.16210 16217 ft 406 kts 135°
2026-05-07 16:35 45.53744 9.19214 17032 ft 413 kts 135°
2026-05-07 16:35 45.51796 9.22266 17939 ft 418 kts 135°
2026-05-07 16:35 45.49830 9.25347 18747 ft 423 kts 135°
2026-05-07 16:36 45.47839 9.28463 19498 ft 428 kts 135°
2026-05-07 16:36 45.45823 9.31617 20250 ft 434 kts 136°
2026-05-07 16:36 45.43772 9.34818 20972 ft 439 kts 136°
2026-05-07 16:36 45.41700 9.38049 21686 ft 444 kts 137°
2026-05-07 16:37 45.39607 9.41309 22379 ft 450 kts 137°
2026-05-07 16:37 45.37482 9.44615 23093 ft 455 kts 137°
2026-05-07 16:37 45.35335 9.47949 23724 ft 460 kts 138°
2026-05-07 16:37 45.33162 9.51322 24303 ft 464 kts 138°
2026-05-07 16:38 45.30975 9.54713 24894 ft 467 kts 138°
2026-05-07 16:38 45.28774 9.58123 25525 ft 470 kts 139°
2026-05-07 16:38 45.27310 9.60389 25883 ft 472 kts 139°
2026-05-07 16:38 45.25080 9.63837 26413 ft 476 kts 139°
2026-05-07 16:39 45.23017 9.67021 26879 ft 480 kts 139°
2026-05-07 16:39 45.20751 9.70505 27367 ft 479 kts 140°
2026-05-07 16:39 45.18272 9.73592 27680 ft 471 kts 154°
2026-05-07 16:39 45.15365 9.75533 27981 ft 458 kts 166°
2026-05-07 16:40 45.12362 9.77147 28280 ft 466 kts 165°
2026-05-07 16:40 45.09348 9.78868 28810 ft 467 kts 165°
2026-05-07 16:40 45.06350 9.80657 29366 ft 468 kts 164°
2026-05-07 16:40 45.03352 9.82487 29814 ft 471 kts 164°
2026-05-07 16:41 45.00348 9.84342 30225 ft 472 kts 163°
2026-05-07 16:41 44.97345 9.86203 30701 ft 470 kts 163°
2026-05-07 16:41 44.94358 9.88055 31227 ft 468 kts 163°
2026-05-07 16:41 44.91377 9.89897 31702 ft 466 kts 164°
2026-05-07 16:42 44.88414 9.91721 32137 ft 465 kts 164°
2026-05-07 16:42 44.85450 9.93541 32614 ft 463 kts 164°
2026-05-07 16:42 44.82500 9.95349 33099 ft 461 kts 164°
2026-05-07 16:42 44.79564 9.97146 33547 ft 460 kts 164°
2026-05-07 16:43 44.76636 9.98934 33976 ft 459 kts 164°
2026-05-07 16:43 44.73704 10.00723 34318 ft 458 kts 164°
2026-05-07 16:43 44.70783 10.02503 34602 ft 459 kts 164°
2026-05-07 16:43 44.67850 10.04287 34892 ft 460 kts 164°
2026-05-07 16:44 44.65010 10.06014 35190 ft 459 kts 164°
2026-05-07 16:44 44.62078 10.07797 35479 ft 460 kts 164°
2026-05-07 16:44 44.59151 10.09576 35830 ft 458 kts 164°
2026-05-07 16:44 44.56218 10.11355 36034 ft 460 kts 164°
2026-05-07 16:45 44.53280 10.13134 36269 ft 460 kts 163°
2026-05-07 16:45 44.50342 10.14914 36500 ft 461 kts 163°
2026-05-07 16:45 44.47394 10.16697 36720 ft 461 kts 163°
2026-05-07 16:45 44.44448 10.18476 36970 ft 462 kts 163°
2026-05-07 16:46 44.41503 10.20252 37209 ft 461 kts 163°
2026-05-07 16:46 44.38551 10.22029 37439 ft 461 kts 163°
2026-05-07 16:46 44.35603 10.23801 37654 ft 461 kts 163°
2026-05-07 16:46 44.32658 10.25572 37867 ft 462 kts 163°
2026-05-07 16:47 44.29705 10.27348 38106 ft 462 kts 163°
2026-05-07 16:47 44.26757 10.29116 38299 ft 461 kts 163°
2026-05-07 16:47 44.23808 10.30882 38553 ft 461 kts 163°
2026-05-07 16:47 44.20882 10.32643 38927 ft 456 kts 163°
2026-05-07 16:48 44.17972 10.34387 39191 ft 455 kts 163°
2026-05-07 16:48 44.15032 10.36008 39345 ft 452 kts 168°
2026-05-07 16:48 44.12047 10.37392 39488 ft 453 kts 168°
2026-05-07 16:49 44.06026 10.40181 39610 ft 459 kts 168°
2026-05-07 16:49 44.03009 10.41593 39711 ft 461 kts 167°
2026-05-07 16:49 44.00977 10.42547 39827 ft 461 kts 167°
2026-05-07 16:50 43.95566 10.45090 39995 ft 463 kts 167°
2026-05-07 16:50 43.90830 10.47310 40089 ft 466 kts 167°
2026-05-07 16:50 43.87764 10.48746 40197 ft 467 kts 167°
2026-05-07 16:51 43.84678 10.50189 40279 ft 468 kts 167°
2026-05-07 16:51 43.78491 10.53077 40420 ft 470 kts 167°
2026-05-07 16:52 43.72339 10.56297 40542 ft 476 kts 163°
2026-05-07 16:52 43.66213 10.59809 40703 ft 477 kts 163°
2026-05-07 16:53 43.60507 10.63068 40790 ft 479 kts 163°
2026-05-07 16:53 43.54390 10.66540 40924 ft 480 kts 163°
2026-05-07 16:54 43.48207 10.70034 40984 ft 481 kts 163°
2026-05-07 16:54 43.42005 10.73530 40967 ft 482 kts 163°
2026-05-07 16:55 43.35801 10.77020 40975 ft 482 kts 163°
2026-05-07 16:55 43.29586 10.80509 40972 ft 483 kts 163°
2026-05-07 16:56 43.23359 10.83998 40970 ft 483 kts 163°
2026-05-07 16:56 43.14017 10.89217 40960 ft 484 kts 163°
2026-05-07 16:57 43.07812 10.92674 40967 ft 483 kts 163°
2026-05-07 16:57 43.01578 10.96140 40964 ft 483 kts 163°
2026-05-07 16:58 42.95358 10.99589 40963 ft 482 kts 163°
2026-05-07 16:58 42.89143 11.03029 40962 ft 482 kts 163°
2026-05-07 16:59 42.82935 11.06458 40968 ft 481 kts 163°
2026-05-07 16:59 42.76740 11.09871 40964 ft 480 kts 164°
2026-05-07 17:00 42.70597 11.13249 40966 ft 479 kts 164°
2026-05-07 17:00 42.64413 11.16641 40970 ft 479 kts 163°
2026-05-07 17:01 42.58187 11.20050 40967 ft 479 kts 163°
2026-05-07 17:01 42.51997 11.23431 40960 ft 479 kts 163°
2026-05-07 17:02 42.45841 11.26787 40980 ft 479 kts 164°
2026-05-07 17:02 42.39691 11.30132 40951 ft 480 kts 164°
2026-05-07 17:03 42.33500 11.33492 40963 ft 480 kts 164°
2026-05-07 17:03 42.27295 11.36853 40959 ft 480 kts 164°
2026-05-07 17:04 42.21096 11.40204 40961 ft 480 kts 164°
2026-05-07 17:04 42.14893 11.43550 40961 ft 480 kts 164°
2026-05-07 17:05 42.08687 11.46891 40956 ft 480 kts 164°
2026-05-07 17:05 42.02480 11.50224 40959 ft 480 kts 164°
2026-05-07 17:06 41.96266 11.53555 40957 ft 481 kts 164°
2026-05-07 17:06 41.90056 11.56876 40962 ft 481 kts 164°
2026-05-07 17:07 41.83838 11.60195 40952 ft 481 kts 164°
2026-05-07 17:07 41.78671 11.62947 40954 ft 481 kts 164°
2026-05-07 17:08 41.72458 11.66250 40952 ft 480 kts 164°
2026-05-07 17:08 41.66246 11.69547 40953 ft 480 kts 164°
2026-05-07 17:09 41.60033 11.72836 40949 ft 480 kts 164°
2026-05-07 17:09 41.53817 11.76120 40946 ft 480 kts 164°
2026-05-07 17:10 41.47612 11.79392 40947 ft 480 kts 164°
2026-05-07 17:10 41.41412 11.82654 40944 ft 479 kts 164°
2026-05-07 17:11 41.35200 11.85916 40942 ft 479 kts 165°
2026-05-07 17:11 41.28992 11.89169 40939 ft 479 kts 165°
2026-05-07 17:12 41.22788 11.92414 40941 ft 480 kts 165°
2026-05-07 17:12 41.16582 11.95678 40945 ft 481 kts 162°
2026-05-07 17:13 41.10782 11.99613 40932 ft 486 kts 158°
2026-05-07 17:13 41.04832 12.03913 40946 ft 487 kts 158°
2026-05-07 17:14 40.98869 12.08174 40932 ft 487 kts 158°
2026-05-07 17:14 40.92885 12.12393 40937 ft 488 kts 158°
2026-05-07 17:15 40.86892 12.16593 40937 ft 488 kts 158°
2026-05-07 17:15 40.80886 12.20792 40940 ft 488 kts 159°
2026-05-07 17:16 40.74919 12.24958 40934 ft 488 kts 159°
2026-05-07 17:16 40.68878 12.29168 40933 ft 488 kts 159°
2026-05-07 17:17 40.62903 12.33325 40932 ft 488 kts 159°
2026-05-07 17:17 40.56901 12.37491 40932 ft 487 kts 159°
2026-05-07 17:18 40.50904 12.41646 40929 ft 487 kts 159°
2026-05-07 17:18 40.44902 12.45795 40925 ft 486 kts 159°
2026-05-07 17:19 40.38951 12.49900 40924 ft 486 kts 159°
2026-05-07 17:19 40.32969 12.54019 40926 ft 485 kts 159°
2026-05-07 17:20 40.26993 12.58125 40921 ft 485 kts 160°
2026-05-07 17:20 40.21010 12.62233 40793 ft 484 kts 164°
2026-05-07 17:21 40.15068 12.66307 40902 ft 481 kts 164°
2026-05-07 17:21 40.09143 12.70347 40905 ft 480 kts 164°
2026-05-07 17:22 40.03243 12.74364 40905 ft 481 kts 164°
2026-05-07 17:22 39.97305 12.78402 40908 ft 481 kts 164°
2026-05-07 17:23 39.91365 12.82434 40913 ft 482 kts 164°
2026-05-07 17:23 39.85415 12.86465 40908 ft 482 kts 164°
2026-05-07 17:24 39.79448 12.90500 40899 ft 483 kts 163°
2026-05-07 17:24 39.73472 12.94534 40899 ft 484 kts 163°
2026-05-07 17:25 39.67484 12.98568 40895 ft 485 kts 163°
2026-05-07 17:25 39.61529 13.02572 40890 ft 485 kts 163°
2026-05-07 17:26 39.55521 13.06603 40893 ft 486 kts 163°
2026-05-07 17:26 39.49507 13.10631 40887 ft 486 kts 163°
2026-05-07 17:27 39.43487 13.14655 40882 ft 487 kts 163°
2026-05-07 17:27 39.37475 13.18666 40880 ft 487 kts 163°
2026-05-07 17:28 39.31451 13.22677 40873 ft 487 kts 163°
2026-05-07 17:28 39.25469 13.26652 40865 ft 486 kts 163°
2026-05-07 17:29 39.19445 13.30648 40869 ft 486 kts 163°
2026-05-07 17:29 39.13431 13.34628 40859 ft 486 kts 163°
2026-05-07 17:30 39.07414 13.38603 40870 ft 485 kts 163°
2026-05-07 17:30 39.01405 13.42565 40861 ft 485 kts 163°
2026-05-07 17:31 38.95388 13.46524 40858 ft 485 kts 163°
2026-05-07 17:31 38.89386 13.50469 40780 ft 481 kts 163°
2026-05-07 17:32 38.86428 13.52417 40365 ft 475 kts 164°
2026-05-07 17:32 38.83503 13.54341 39915 ft 470 kts 165°
2026-05-07 17:32 38.80596 13.56248 39377 ft 467 kts 165°
2026-05-07 17:32 38.78684 13.57498 38940 ft 468 kts 166°
2026-05-07 17:33 38.74801 13.60020 37648 ft 475 kts 166°
2026-05-07 17:33 38.71821 13.61944 36537 ft 483 kts 165°
2026-05-07 17:33 38.68818 13.63892 35674 ft 485 kts 165°
2026-05-07 17:33 38.65812 13.65852 34918 ft 485 kts 164°
2026-05-07 17:34 38.62808 13.67815 34137 ft 485 kts 163°
2026-05-07 17:34 38.59800 13.69778 33243 ft 486 kts 163°
2026-05-07 17:34 38.56778 13.71744 32247 ft 487 kts 162°
2026-05-07 17:34 38.53748 13.73711 31261 ft 489 kts 162°
2026-05-07 17:35 38.50701 13.75687 30281 ft 491 kts 161°
2026-05-07 17:35 38.47653 13.77663 29374 ft 489 kts 161°
2026-05-07 17:35 38.44635 13.79623 28600 ft 483 kts 161°
2026-05-07 17:35 38.41695 13.81531 27874 ft 478 kts 161°
2026-05-07 17:36 38.38745 13.83442 27144 ft 474 kts 160°
2026-05-07 17:36 38.35808 13.85339 26378 ft 471 kts 160°
2026-05-07 17:36 38.32888 13.87220 25619 ft 469 kts 160°
2026-05-07 17:36 38.29976 13.89094 24870 ft 468 kts 160°
2026-05-07 17:37 38.27075 13.90958 24177 ft 466 kts 160°
2026-05-07 17:37 38.24177 13.92821 23496 ft 465 kts 160°
2026-05-07 17:37 38.21295 13.94672 22774 ft 462 kts 159°
2026-05-07 17:37 38.18445 13.96504 22222 ft 455 kts 159°
2026-05-07 17:38 38.15677 13.98283 21720 ft 448 kts 159°
2026-05-07 17:38 38.12917 14.00055 21163 ft 442 kts 159°
2026-05-07 17:38 38.10180 14.01808 20583 ft 437 kts 159°
2026-05-07 17:38 38.07479 14.03535 20016 ft 433 kts 159°
2026-05-07 17:39 38.04798 14.05248 19478 ft 428 kts 158°
2026-05-07 17:39 38.02155 14.06935 18954 ft 423 kts 158°
2026-05-07 17:39 37.99535 14.08607 18421 ft 418 kts 158°
2026-05-07 17:39 37.96950 14.10255 17872 ft 414 kts 158°
2026-05-07 17:40 37.94383 14.11889 17264 ft 411 kts 158°
2026-05-07 17:40 37.91844 14.13506 16653 ft 407 kts 158°
2026-05-07 17:40 37.89321 14.15111 16103 ft 404 kts 157°
2026-05-07 17:40 37.86836 14.16694 15580 ft 401 kts 158°
2026-05-07 17:41 37.84359 14.18267 15079 ft 396 kts 158°
2026-05-07 17:41 37.81897 14.19826 14563 ft 393 kts 158°
2026-05-07 17:41 37.79458 14.21373 14017 ft 390 kts 158°
2026-05-07 17:41 37.77048 14.22901 13497 ft 387 kts 158°
2026-05-07 17:42 37.74680 14.24402 12939 ft 384 kts 158°
2026-05-07 17:42 37.72296 14.25911 12390 ft 381 kts 158°
2026-05-07 17:42 37.69934 14.27403 11822 ft 378 kts 158°
2026-05-07 17:42 37.68602 14.28246 11568 ft 375 kts 158°
2026-05-07 18:13 37.67788 14.28761 11532 ft 369 kts 158°
2026-05-07 18:14 37.65539 14.30186 11463 ft 354 kts 158°
2026-05-07 18:14 37.63377 14.31556 11369 ft 341 kts 158°
2026-05-07 18:14 37.61297 14.32869 11280 ft 328 kts 158°
2026-05-07 18:14 37.59288 14.34136 11199 ft 316 kts 158°
2026-05-07 18:15 37.57384 14.35336 11109 ft 304 kts 159°
2026-05-07 18:15 37.55518 14.36510 10982 ft 295 kts 159°
2026-05-07 18:15 37.53702 14.37652 10745 ft 289 kts 159°
2026-05-07 18:15 37.51905 14.38779 10460 ft 287 kts 159°
2026-05-07 18:16 37.50122 14.39896 10116 ft 286 kts 159°
2026-05-07 18:16 37.48339 14.41016 9775 ft 286 kts 159°
2026-05-07 18:16 37.46536 14.42147 9441 ft 285 kts 159°
2026-05-07 18:16 37.44772 14.43253 9128 ft 282 kts 159°
2026-05-07 18:17 37.43091 14.44417 8773 ft 280 kts 148°
2026-05-07 18:17 37.41867 14.46357 8248 ft 295 kts 113°
2026-05-07 18:17 37.41622 14.48918 7918 ft 295 kts 85°
2026-05-07 18:17 37.41917 14.51458 7458 ft 295 kts 82°
2026-05-07 18:18 37.42210 14.54020 7134 ft 295 kts 84°
2026-05-07 18:18 37.42455 14.56557 6927 ft 289 kts 85°
2026-05-07 18:18 37.42676 14.59071 6610 ft 290 kts 85°
2026-05-07 18:18 37.42890 14.61601 6312 ft 289 kts 85°
2026-05-07 18:19 37.43099 14.64096 6114 ft 284 kts 85°
2026-05-07 18:19 37.43307 14.66565 5751 ft 285 kts 85°
2026-05-07 18:19 37.43515 14.69045 5451 ft 283 kts 85°
2026-05-07 18:19 37.43709 14.71354 5234 ft 279 kts 85°
2026-05-07 18:20 37.43916 14.73805 4913 ft 278 kts 84°
2026-05-07 18:20 37.44116 14.76188 4580 ft 277 kts 84°
2026-05-07 18:20 37.44321 14.78630 4198 ft 276 kts 84°
2026-05-07 18:20 37.44520 14.80987 3822 ft 268 kts 84°
2026-05-07 18:21 37.44708 14.83227 3475 ft 248 kts 83°
2026-05-07 18:21 37.44882 14.85308 3164 ft 229 kts 82°
2026-05-07 18:21 37.45043 14.87223 2869 ft 212 kts 82°
2026-05-07 18:21 37.45195 14.89014 2638 ft 194 kts 82°
2026-05-07 18:22 37.45327 14.90603 2365 ft 176 kts 82°
2026-05-07 18:22 37.45412 14.91597 2204 ft 162 kts 83°
2026-05-07 18:22 37.45552 14.93279 1938 ft 128 kts 82°
2026-05-07 18:22 37.45613 14.93989 1851 ft 119 kts 81°
2026-05-07 18:23 37.45743 14.95519 1627 ft 134 kts 83°
2026-05-07 18:23 37.45834 14.96616 1450 ft 120 kts 84°
2026-05-07 18:23 37.45924 14.97678 1303 ft 128 kts 84°
2026-05-07 18:23 37.46019 14.98837 1129 ft 139 kts 81°
2026-05-07 18:24 37.46125 15.00071 897 ft 141 kts 81°
2026-05-07 18:24 37.46233 15.01292 731 ft 140 kts 82°
2026-05-07 18:24 37.46312 15.02498 524 ft 136 kts 79°
2026-05-07 18:24 37.46425 15.03637 356 ft 128 kts 78°
2026-05-07 18:25 37.46526 15.04744 171 ft 128 kts 80°
2026-05-07 18:25 37.46612 15.05847 62 ft 123 kts 80°
2026-05-07 18:25 37.46690 15.06810 42 ft 97 kts 81°
2026-05-07 18:25 37.46752 15.07472 41 ft 54 kts 81°
2026-05-07 18:26 37.46829 15.07729 41 ft 8 kts 55°
2026-05-07 18:26 37.46868 15.07792 39 ft 9 kts 41°
2026-05-07 18:26 37.46915 15.07797 38 ft 4 kts 323°
2026-05-07 18:26 37.46928 15.07758 37 ft 5 kts 284°
2026-05-07 18:27 37.46931 15.07698 37 ft 9 kts 269°
2026-05-07 18:27 37.46923 15.07597 37 ft 14 kts 264°
2026-05-07 18:27 37.46911 15.07454 37 ft 20 kts 263°
2026-05-07 18:27 37.46899 15.07333 37 ft 23 kts 263°
2026-05-07 18:28 37.46879 15.07068 37 ft 25 kts 264°
2026-05-07 18:28 37.46860 15.06843 37 ft 26 kts 264°
2026-05-07 18:28 37.46841 15.06616 37 ft 26 kts 264°
2026-05-07 18:28 37.46824 15.06424 37 ft 13 kts 259°
2026-05-07 18:29 37.46845 15.06369 36 ft 6 kts 335°
2026-05-07 18:29 37.46889 15.06362 36 ft 7 kts 358°
2026-05-07 18:29 37.46935 15.06381 36 ft 7 kts 32°
2026-05-07 18:29 37.46951 15.06394 35 ft 2 kts 32°
2026-05-07 18:30 37.46964 15.06405 36 ft 3 kts 32°
2026-05-07 18:30 37.46966 15.06406 36 ft 0 kts 32°
2026-05-07 18:40 37.46967 15.06406 36 ft 0 kts 32°